DELTA 1 DEB, 10870

Orbit data source: Space-Track

DELTA 1 DEB, 10870 is space debris in SSO originally from a launch on Thu, 29 Jul 1976 UTC launched from the Air Force Western Test Range (AFWTR). Debris objects in space refer to the collection of defunct objects orbiting the Earth. Examples of debris include non-operational satellites, rocket bodies, and fragments generated from explosions, collisions, or faulty payload assembly.

Loading next visibility...
Identifier
10870, 1976-077CY
Orbit
SSO
Country
Flag of USUS
Related business
Manufacturer
Unknown
Mission
Spacecraft
Bus & Motor
Unknown
Mass
Unknown
Launch date (UTC)
1976-07-29 (49 years ago)
Launch vehicle
Unknown
Launch site
Air Force Western Test Range (AFWTR)
Object type
Payload
Rocket body
Debris
Shape & HBR
Unknown shape, 0.2 m
Radar Cross Section
Small (<0.1 m²)

Expand to show TLE details & history
Last TLE update: 5 hours ago

TLE from 5 hours ago
0 DELTA 1 DEB
1 10870U 76077CY  25351.92370515  .00000370  00000-0  27691-2 0  9998
2 10870 101.7180 332.9124 0008938 188.0739 230.4403 12.48793091241236
Epoch: 2025-12-17T22:10Z
TLE epoch observation values (Epoch: 2025-12-17T22:10:08.124Z)
Latitude
56.63577°
Longitude
-104.67529°
Altitude
1,483.291 km
Speed
7.125 km/s
True Right ascension
20h 58m 34s
True Declination
56° 29' 32"
Sunlit
Object was in daylight at epoch
Visualization orbit readout
Latitude
Unknown
Longitude
Unknown
Altitude
Unknown
Speed
Unknown
Apparent Right ascension
Unknown
Apparent Declination
Unknown
Sunlit
N/A
Visualization observer readout
Local Sidereal Time
02:01:01
Azimuth
Unknown
Elevation
Unknown
Doppler factor
Unknown
Orbital elements
Apogee altitude
1,474.106 km
Perigee altitude
1,460.082 km
Semi-major axis
7,845.231 km
Eccentricity
0.00089
Inclination
101.718°
RAAN
332.9124°
Arg. of periapsis
188.0739°
True anomaly
230.36139°
Mean anomaly
230.4403°
Eccentric anomaly
230.40084°
Mean motion
3.12345 °/min
Orbital period
115.26 mins
BSTAR
0.0027691
Loading maneuver chart data...
Computing Atmospheric mass density...
Loading historical data...
Loading historical data...
Loading historical data...
Loading historical data...
Loading historical data...
Loading historical data...
Loading historical data...

Documentation

Showing up to 5 results
|